Location: Aalsum
(53.3404°N, 6.0062°E)
Time: 09:07:30
(UTC+00:00)

GEOS 3 Rocket - Pass Details

Date: 28 January 2023
Orbit: 772 x 846 km, 115.0° (Epoch: 19 March)

Event Time Altitude Azimuth Distance (km) Brightness Sun altitude
Exits shadow 18:47:31 45° 45° (NE) 1,110 4.0 -23.1°
Maximum altitude 18:47:58 46° 30° (NNE) 1,094 4.0 -23.2°
Drops below altitude 10° 18:53:01 10° 319° (NW) 2,444 6.6 -24.0°
Sets 18:55:25 0° 314° (NW) 3,390 7.6 -24.3°
